Regional Weather Roundup
Issued by NWS Jackson, KY

Home | Current Version | Previous Version | Text Only | Print | Product List | Glossary On
Versions: 1 2 3 4 5 6 7 8 9 10 11 12 13 14 15 16 17 18 19 20 21 22 23 24 25 26 27 28
000
ASUS43 KJKL 082210
RWRJKL

EAST KENTUCKY HOURLY WEATHER ROUNDUP
NATIONAL WEATHER SERVICE JACKSON KY
500 PM EST THU DEC 08 2016

NOTE: "FAIR" INDICATES FEW OR NO CLOUDS BELOW 12,000 FEET WITH
NO SIGNIFICANT WEATHER AND/OR OBSTRUCTIONS TO VISIBILITY.

* THESE REPORTS ARE NOT UNDER NWS QUALITY CONTROL AND MAY NOT
  REPORT WEATHER SUCH AS PRECIPITATION AND FOG.

KYZ079-080-083-085-087-088-110-112-115-119-120-082300
...EASTERN KENTUCKY...

CITY           SKY/WX    TMP DP  RH WIND       PRES   REMARKS
JACKSON        CLEAR     32  16  51 VRB7G17   30.29R WCI  26
LONDON         CLEAR     33  15  47 W13       30.32R WCI  24
SOMERSET*      CLEAR     32  14  47 NW8       30.37R WCI  25
MONTICELLO*    CLEAR     33  16  49 W10       30.38R WCI  25
MIDDLESBORO*   CLEAR     36  15  42 NW13      30.32R WCI  28
HARLAN APT*    PTCLDY    36  12  38 W9G18     30.28R WCI  29
PIKE CO APT*     N/A     33  16  49 NW7       30.26R WCI  26
BIG SANDY APT* CLEAR     34  17  49 NW5       30.27R WCI  29
MOREHEAD APT*  CLEAR     32  14  47 W8G17     30.32R WCI  25
ASHLAND*       PTCLDY    36  16  44 W10G18    30.28R WCI  28
$$

KYZ035-036-041-042-044-050-067-078-099-082300
...CENTRAL KENTUCKY...

CITY           SKY/WX    TMP DP  RH WIND       PRES   REMARKS
MT STERLING*   CLEAR     32  18  55 W6        30.33S WCI  26
FLEMING/MASON* PTCLDY    32  13  47 W10       30.32R WCI  23
DANVILLE*      PTCLDY    32  16  51 W10G16    30.36R WCI  24
LEXINGTON      CLEAR     32  13  45 W10       30.33R WCI  24
FRANKFORT      CLEAR     33  12  41 W8        30.34R WCI  26
LOUISVILLE     PTCLDY    32  13  45 W15       30.39R WCI  22
LEBANON*         N/A     32  14  47 W12       30.38R WCI  23
GLASGOW*       PTCLDY    32  17  53 W8        30.41R WCI  25
BOWLING GREEN  CLEAR     33  14  45 NW6       30.44R WCI  28
$$

KYZ091>093-OHZ055-061-077-WVZ005-015-034-035-042-082300
...SOUTHERN OHIO/WEST VIRGINIA...

CITY           SKY/WX    TMP DP  RH WIND       PRES   REMARKS
COVINGTON      PTCLDY    26  15  63 NW15      30.34R WCI  14
COLUMBUS       FLURRIES  24  16  71 W13       30.29R WCI  12
DAYTON         CLOUDY    24  13  62 W16G29    30.31R WCI  11
WILMINGTON     CLOUDY    23  13  65 W16G23    30.31R WCI  10
HUNTINGTON     PTCLDY    34  13  41 W10       30.28R WCI  26
CHARLESTON     PTCLDY    34  14  43 W13G26    30.24R WCI  25
PINEVILLE*     CLEAR     34   9  35 MISG      30.24R
BECKLEY        CLEAR     31  11  43 W16G22    30.14R WCI  20
BLUEFIELD      CLEAR     29   9  43 W16G30    30.13R WCI  17
LOGAN CO APT*    N/A     32  14  47 W8G15     30.22R WCI  25
$$

VAZ002-007-008-TNZ017-027-036-066-071-082300
...SOUTHWEST VIRGINIA/EAST TENNESSEE...

CITY           SKY/WX    TMP DP  RH WIND       PRES   REMARKS
WISE*          PTCLDY    32  14  47 W13       30.21R WCI  22
ABINGDON*      CLEAR     38   9  30 N9        30.20R WCI  31
BRISTOL        PTCLDY    39  12  33 W12       30.23R WCI  32
MORRISTOWN*    CLEAR     39  12  33 NW10      30.26S WCI  32
SEVIERVILLE*   CLEAR     39  12  33 NW6       30.29R WCI  35
KNOXVILLE      MOCLDY    42  13  30 W13       30.29R
OAK RIDGE      CLEAR     43  10  26 W7        30.32R
CROSSVILLE     CLEAR     34  13  41 NW9       30.31R WCI  27
NASHVILLE      MOCLDY    37  15  40 NW10      30.42R WCI  30
$$

...KEY TO REMARKS...
VSB - VISIBILITY IN MILES
WCI - WIND CHILL INDEX
HX  - HEAT INDEX

$$




USA.gov is the U.S. government's official web portal to all federal, state and local government web resources and services.